Weather History for Estherville, IA

Change the Weather History Date:

Saturday, February 9, 2013

  Actual Average Record
Temperature  
Mean Temperature 30 °F 19 °F  
Max Temperature 36 °F 28 °F 51 °F (1991)
Min Temperature 24 °F 10 °F -25 °F (1972)
Degree Days  
Heating Degree Days 35 46  
Month to date heating degree days 392 426  
Since 1 July heating degree days 4786 5097  
Cooling Degree Days 0 0  
Month to date cooling degree days 0 0  
Year to date cooling degree days 0 0  
Moisture  
Dew Point 25 °F    
Average Humidity 84    
Maximum Humidity 92    
Minimum Humidity 75    
Precipitation  
Precipitation 0.00 in 0.01 in 0.45 in (1966)
Month to date precipitation T 0.11  
Sea Level Pressure  
Sea Level Pressure 30.01 in    
Wind  
Wind Speed 20 mph (SSE)    
Max Wind Speed 28 mph    
Max Gust Speed 36 mph    
Visibility 6 miles    
Events      
T = Trace of Precipitation, MM = Missing Value Source: NWS Daily Summary

Daily Weather History Graph

Daily Weather History Graph

Search for Another Location

Airport:

Trip Planner

Search our weather history database for the weather conditions in past years. The results will help you decide how hot, cold, wet, or windy it might be!

Date:

Astronomy

Feb. 09, 2013 Rise Set
Actual Time 7:25 AM CST 5:42 PM CST
Civil Twilight 6:55 AM CST 6:11 PM CST
Nautical Twilight 6:21 AM CST 6:45 PM CST
Astronomical Twilight 5:48 AM CST 7:18 PM CST
Moon 6:36 AM CST (2/9) 5:26 PM CST (2/9)
Length of Visible Light 11h 16m
Length of Day
10h 17m
Waning Crescent, 0% of the Moon is Illuminated
Feb 9
Waning Crescent
Feb 10
New
Feb 17
First Quarter
Feb 25
Full
Mar 4
Last Quarter

Hourly Weather History & Observations

Time (CST) Temp. Windchill Dew Point Humidity Pressure Visibility Wind Dir Wind Speed Gust Speed Precip Events Conditions
12:52 AM 24.1 °F 9.4 °F 21.0 °F 88% 30.22 in 7.0 mi South 20.7 mph 26.5 mph N/A   Overcast
1:52 AM 24.1 °F 10.1 °F 21.9 °F 91% 30.20 in 6.0 mi South 18.4 mph - N/A   Overcast
2:52 AM 24.1 °F 10.6 °F 21.9 °F 91% 30.18 in 6.0 mi SSE 17.3 mph 20.7 mph N/A   Overcast
3:21 AM 24.8 °F 11.1 °F 21.2 °F 86% 30.11 in 6.0 mi South 18.4 mph - N/A   Overcast
3:52 AM 24.1 °F 10.1 °F 21.9 °F 91% 30.14 in 6.0 mi South 18.4 mph - N/A   Overcast
4:52 AM 24.1 °F 9.4 °F 21.9 °F 91% 30.12 in 7.0 mi South 20.7 mph 32.2 mph N/A   Overcast
4:59 AM 24.8 °F 9.3 °F 21.2 °F 86% 30.06 in 7.0 mi SSE 24.2 mph 33.4 mph N/A   Overcast
5:52 AM 25.0 °F 9.9 °F 21.9 °F 88% 30.10 in 8.0 mi South 23.0 mph 33.4 mph N/A   Overcast
6:52 AM 25.0 °F 10.2 °F 21.9 °F 88% 30.11 in 8.0 mi South 21.9 mph - N/A   Overcast
7:52 AM 25.0 °F 9.5 °F 23.0 °F 92% 30.11 in 5.0 mi South 24.2 mph 28.8 mph N/A   Overcast
8:52 AM 26.1 °F 12.7 °F 24.1 °F 92% 30.09 in 4.0 mi South 18.4 mph - N/A   Overcast
9:21 AM 26.6 °F 13.4 °F 24.8 °F 93% 30.03 in 3.0 mi South 18.4 mph - N/A   Overcast
9:52 AM 28.0 °F 13.9 °F 25.0 °F 88% 30.08 in 3.0 mi South 23.0 mph - N/A   Overcast
10:52 AM 28.9 °F 15.1 °F 26.1 °F 89% 30.07 in 4.0 mi South 23.0 mph 29.9 mph N/A   Overcast
11:17 AM 30.2 °F 18.5 °F 26.6 °F 86% 30.01 in 4.0 mi SSE 17.3 mph 29.9 mph N/A   Overcast
11:52 AM 30.0 °F 17.9 °F 27.0 °F 88% 30.04 in 4.0 mi South 18.4 mph - N/A   Overcast
12:52 PM 32.0 °F 19.8 °F 28.0 °F 85% 30.00 in 5.0 mi SSE 20.7 mph 27.6 mph N/A   Overcast
1:34 PM 33.8 °F 21.3 °F 28.4 °F 81% 29.92 in 5.0 mi SSE 24.2 mph - N/A   Haze
1:52 PM 34.0 °F 21.8 °F 28.9 °F 82% 29.96 in 6.0 mi South 23.0 mph 29.9 mph N/A   Haze
2:52 PM 35.1 °F 24.1 °F 28.9 °F 78% 29.93 in 7.0 mi SSE 19.6 mph 28.8 mph N/A   Overcast
3:52 PM 35.1 °F 23.8 °F 28.9 °F 78% 29.91 in 7.0 mi SSE 20.7 mph 25.3 mph N/A   Mostly Cloudy
4:52 PM 34.0 °F 22.7 °F 28.9 °F 82% 29.89 in 6.0 mi SSE 19.6 mph 26.5 mph N/A   Haze
5:52 PM 32.0 °F 20.8 °F 28.0 °F 85% 29.89 in 6.0 mi SSE 17.3 mph - N/A   Mostly Cloudy
6:37 PM 32.0 °F 19.2 °F 28.4 °F 87% 29.84 in 5.0 mi SSE 23.0 mph 29.9 mph N/A   Overcast
6:52 PM 30.9 °F 17.5 °F 28.0 °F 89% 29.89 in 5.0 mi SSE 24.2 mph 27.6 mph N/A   Overcast
7:52 PM 30.9 °F 18.4 °F 27.0 °F 85% 29.90 in 5.0 mi SSE 20.7 mph - N/A   Overcast
8:52 PM 30.0 °F 16.9 °F 27.0 °F 88% 29.90 in 5.0 mi SE 21.9 mph 27.6 mph N/A   Overcast
9:52 PM 30.0 °F 17.9 °F 27.0 °F 88% 29.88 in 5.0 mi SE 18.4 mph - N/A   Overcast
10:52 PM 30.0 °F 19.1 °F 26.1 °F 85% 29.86 in 5.0 mi SE 15.0 mph - N/A   Overcast
11:52 PM 30.0 °F 18.3 °F 27.0 °F 88% 29.83 in 5.0 mi SE 17.3 mph - N/A   Overcast